Date String (YYYY-MM-DD hh:mm:ss) UTC,Instrument flags,absolute air pressure of the measurement (hPa),sample flow rate (lpm),inlet stack bypass flow (lpm),air temperature of the measurement (°C),ambient temperature measured by the external sensor (°C),aerosol sample conditioner tube jacket temperature (°C),OPC LED temperature (°C),internal box temperature (°C),relative humidity of the measurement (%),span deviation,mass concentration of particles derived from Lorenz-Mie calculation of OPC scattering (μg/m³),mass concentration of particles derived from Lorenz-Mie calculation of OPC scattering (μg/m³),mass concentration of particles derived from Lorenz-Mie calculation of OPC scattering (μg/m³)
DateTimeUTC,F1_M11,P_M11,Q1_M11,Q2_M11,T1_M11,T2_M11,T3_M11,T4_M11,T5_M11,U1_M11,ZSPAN_M11,X2_M11,X0_M11,X1_M11
2023-12-04 13:00:00,SystemResetWarning,0826.2,5.00,000.00,018.8,017.9,000.0,027.2,020.0,15.6,0000.0,0000.12,0000.71,0000.06
2023-12-04 13:01:00,SystemResetWarning,0826.1,5.01,000.00,018.8,017.9,000.0,027.2,020.0,15.8,0000.0,0000.12,0001.22,0000.06
2023-12-04 13:02:00,SystemResetWarning,0826.2,5.01,000.00,018.8,017.9,000.0,027.2,020.0,15.5,0000.0,0000.14,0001.44,0000.06
2023-12-04 13:03:00,SystemResetWarning,0826.3,5.00,000.00,018.8,017.9,000.0,027.2,020.0,15.5,0000.0,0000.16,0001.47,0000.07
2023-12-04 13:04:00,SystemResetWarning,0826.3,5.00,000.00,018.8,017.9,000.0,027.2,020.0,15.6,0000.0,0000.17,0001.50,0000.07
2023-12-04 13:05:00,SystemResetWarning,0826.4,5.00,000.00,018.8,017.9,000.0,027.2,020.0,15.8,0000.0,0000.18,0001.57,0000.06
2023-12-04 13:06:00,SystemResetWarning,0826.3,5.00,000.00,018.8,018.0,000.0,027.2,020.0,15.8,0000.0,0000.17,0001.50,0000.06
2023-12-04 13:07:00,SystemResetWarning,0826.3,5.00,000.00,018.8,018.0,000.0,027.2,020.0,15.8,0000.0,0000.15,0001.42,0000.06
2023-12-04 13:08:00,SystemResetWarning,0826.3,4.99,000.00,018.8,018.0,000.0,027.2,020.0,15.7,0000.0,0000.16,0002.28,0000.06
2023-12-04 13:09:00,SystemResetWarning,0826.3,5.00,000.00,018.8,018.0,000.0,027.2,020.0,15.8,0000.0,0000.16,0002.82,0000.06
2023-12-04 13:10:00,SystemResetWarning,0826.3,5.00,000.00,018.8,018.0,000.0,027.2,020.0,15.8,0000.0,0000.15,0002.81,0000.06
2023-12-04 13:11:00,SystemResetWarning,0826.4,5.00,000.00,018.8,018.0,000.0,027.2,020.0,15.8,0000.0,0000.15,0002.81,0000.05
2023-12-04 13:12:00,SystemResetWarning,0826.4,5.00,000.00,018.8,018.0,000.0,027.2,020.0,15.8,0000.0,0000.14,0002.28,0000.05
2023-12-04 13:13:00,SystemResetWarning,0826.5,5.00,000.00,018.8,018.0,000.0,027.2,020.0,15.8,0000.0,0000.12,0001.69,0000.05
2023-12-04 13:14:00,SystemResetWarning,0826.6,5.00,000.00,018.8,018.0,000.0,027.2,020.0,16.1,0000.0,0000.12,0001.64,0000.05
2023-12-04 13:15:00,SystemResetWarning,0826.3,5.00,000.00,018.8,018.0,000.0,027.2,020.0,16.7,0000.0,0000.11,0001.60,0000.05
2023-12-04 13:16:00,SystemResetWarning,0826.2,4.99,000.00,018.8,018.0,000.0,027.2,020.0,17.0,0000.0,0000.11,0001.56,0000.05
2023-12-04 13:17:00,SystemResetWarning,0826.1,5.00,000.00,018.8,018.0,000.0,027.2,020.0,16.9,0000.0,0000.13,0001.59,0000.05
2023-12-04 13:18:00,SystemResetWarning,0826.1,5.00,000.00,018.8,018.0,000.0,027.2,020.0,16.9,0000.0,0000.14,0001.60,0000.05
2023-12-04 13:19:00,SystemResetWarning,0825.9,5.01,000.00,018.8,018.0,000.0,027.2,020.0,17.0,0000.0,0000.14,0000.93,0000.05
2023-12-04 13:20:00,SystemResetWarning,0826.0,5.00,000.00,018.8,017.9,000.0,027.2,020.0,17.0,0000.0,0000.15,0000.31,0000.06
2023-12-04 13:21:00,SystemResetWarning,0825.8,5.00,000.00,018.8,017.9,000.0,027.2,020.0,17.3,0000.0,0000.15,0000.35,0000.05
2023-12-04 13:22:00,SystemResetWarning,0825.9,4.99,000.00,018.8,017.8,000.0,027.2,020.0,17.7,0000.0,0000.17,0000.43,0000.05
2023-12-04 13:23:00,SystemResetWarning,0825.9,4.99,000.00,018.8,017.8,000.0,027.2,020.0,17.7,0000.0,0000.19,0000.52,0000.06
2023-12-04 13:24:00,SystemResetWarning,0825.8,4.99,000.00,018.8,017.8,000.0,027.2,020.0,17.6,0000.0,0000.20,0000.56,0000.06
2023-12-04 13:25:00,SystemResetWarning,0825.8,5.00,000.00,018.8,017.8,000.0,027.2,020.0,17.7,0000.0,0000.20,0000.59,0000.06
2023-12-04 13:26:00,SystemResetWarning,0825.8,5.01,000.00,018.8,017.8,000.0,027.2,020.0,17.7,0000.0,0000.20,0000.88,0000.06
2023-12-04 13:27:00,SystemResetWarning,0825.8,5.01,000.00,018.8,017.8,000.0,027.2,020.0,17.4,0000.0,0000.19,0001.47,0000.07
2023-12-04 13:28:00,SystemResetWarning,0825.9,5.01,000.00,018.8,017.8,000.0,027.2,020.0,17.3,0000.0,0000.17,0001.44,0000.07
2023-12-04 13:29:00,SystemResetWarning,0825.9,5.00,000.00,018.8,017.8,000.0,027.2,020.0,17.1,0000.0,0000.18,0002.63,0000.07
2023-12-04 13:30:00,SystemResetWarning,0825.8,5.00,000.00,018.8,017.7,000.0,027.2,020.0,17.4,0000.0,0000.19,0003.13,0000.07
2023-12-04 13:31:00,SystemResetWarning,0825.8,5.00,000.00,018.8,017.7,000.0,027.2,020.0,17.4,0000.0,0000.18,0003.06,0000.06
2023-12-04 13:32:00,SystemResetWarning,0825.7,5.00,000.00,018.8,017.7,000.0,027.2,020.0,17.5,0000.0,0000.20,0003.06,0000.07
2023-12-04 13:33:00,SystemResetWarning,0825.7,5.00,000.00,018.8,017.7,000.0,027.2,020.0,17.5,0000.0,0000.20,0003.03,0000.07
2023-12-04 13:34:00,SystemResetWarning,0825.7,5.00,000.00,018.8,017.7,000.0,027.2,020.0,17.5,0000.0,0000.19,0002.95,0000.07
2023-12-04 13:35:00,SystemResetWarning,0825.6,5.00,000.00,018.8,017.7,000.0,027.2,020.0,17.4,0000.0,0000.18,0002.91,0000.06
2023-12-04 13:36:00,SystemResetWarning,0825.5,5.00,000.00,018.8,017.7,000.0,027.2,020.0,17.4,0000.0,0000.17,0002.86,0000.06
2023-12-04 13:37:00,SystemResetWarning,0825.4,5.01,000.00,018.8,017.7,000.0,027.2,020.0,17.5,0000.0,0000.19,0002.80,0000.06
2023-12-04 13:38:00,SystemResetWarning,0825.4,5.01,000.00,018.8,017.7,000.0,027.2,020.0,17.8,0000.0,0000.20,0002.05,0000.06
2023-12-04 13:39:00,SystemResetWarning,0825.3,5.00,000.00,018.8,017.7,000.0,027.2,020.0,17.9,0000.0,0000.22,0002.12,0000.06
2023-12-04 13:40:00,SystemResetWarning,0825.1,5.00,000.00,018.8,017.7,000.0,027.2,020.0,17.9,0000.0,0000.20,0001.56,0000.07
2023-12-04 13:41:00,SystemResetWarning,0825.1,5.01,000.00,018.8,017.7,000.0,027.2,020.0,17.9,0000.0,0000.19,0000.41,0000.06
2023-12-04 13:42:00,SystemResetWarning,0825.1,5.00,000.00,018.8,017.7,000.0,027.2,020.0,17.9,0000.0,0000.21,0000.54,0000.07
2023-12-04 13:43:00,SystemResetWarning,0825.0,5.00,000.00,018.8,017.7,000.0,027.2,020.0,18.0,0000.0,0000.19,0000.49,0000.06
2023-12-04 13:44:00,SystemResetWarning,0825.0,5.00,000.00,018.8,017.7,000.0,027.2,020.0,18.0,0000.0,0000.17,0000.45,0000.06
2023-12-04 13:45:00,SystemResetWarning,0825.0,5.00,000.00,018.8,017.7,000.0,027.2,020.0,18.0,0000.0,0000.18,0000.47,0000.06
2023-12-04 13:46:00,SystemResetWarning,0824.9,5.00,000.00,018.8,017.7,000.0,027.2,020.0,18.0,0000.0,0000.19,0000.83,0000.07
2023-12-04 13:47:00,SystemResetWarning,0824.9,4.99,000.00,018.8,017.7,000.0,027.2,020.0,18.0,0000.0,0000.20,0001.90,0000.07
2023-12-04 13:48:00,SystemResetWarning,0824.9,5.00,000.00,018.8,017.7,000.0,027.2,020.0,17.9,0000.0,0000.18,0001.90,0000.07
2023-12-04 13:49:00,SystemResetWarning,0824.9,5.01,000.00,018.8,017.7,000.0,027.2,020.0,18.0,0000.0,0000.18,0001.92,0000.06
2023-12-04 13:50:00,SystemResetWarning,0824.8,5.00,000.00,018.8,017.7,000.0,027.2,020.0,17.8,0000.0,0000.18,0002.05,0000.06
2023-12-04 13:51:00,SystemResetWarning,0824.8,4.99,000.00,018.8,017.7,000.0,027.2,020.0,17.8,0000.0,0000.18,0002.09,0000.06
2023-12-04 13:52:00,SystemResetWarning,0824.7,5.00,000.00,018.8,017.7,000.0,027.2,020.0,17.7,0000.0,0000.21,0002.26,0000.06
2023-12-04 13:53:00,SystemResetWarning,0824.7,5.00,000.00,018.8,017.7,000.0,027.2,020.0,17.6,0000.0,0000.24,0002.27,0000.06
2023-12-04 13:54:00,SystemResetWarning,0824.7,5.00,000.00,018.7,017.7,000.0,027.2,020.0,17.7,0000.0,0000.24,0002.29,0000.07
2023-12-04 13:55:00,SystemResetWarning,0824.5,5.00,000.00,018.7,017.7,000.0,027.2,020.0,17.6,0000.0,0000.27,0002.45,0000.07
2023-12-04 13:56:00,SystemResetWarning,0824.5,5.00,000.00,018.7,017.7,000.0,027.2,020.0,17.7,0000.0,0000.28,0002.57,0000.07
2023-12-04 13:57:00,SystemResetWarning,0824.6,5.00,000.00,018.7,017.7,000.0,027.2,020.0,17.7,0000.0,0000.31,0005.17,0000.07
2023-12-04 13:58:00,SystemResetWarning,0824.4,5.00,000.00,018.7,017.7,000.0,027.2,020.0,17.8,0000.0,0000.38,0006.42,0000.07
2023-12-04 13:59:00,SystemResetWarning,0824.3,5.00,000.00,018.7,017.7,000.0,027.2,020.0,17.5,0000.0,0000.40,0006.90,0000.07
